Weather History for Twin Falls, ID

Change the Weather History Date:

Sunday, June 16, 2013

  Actual Average Record
Temperature  
Mean Temperature 71 °F -  
Max Temperature 90 °F 80 °F 95 °F (1987)
Min Temperature 51 °F 50 °F 34 °F (2004)
Degree Days  
Heating Degree Days 0 3  
Month to date heating degree days 24 67  
Since 1 June heating degree days 24 67  
Since 1 July heating degree days 5706 6151  
Cooling Degree Days 6 3  
Month to date cooling degree days 75 30  
Year to date cooling degree days 100 52  
Since 1 June cooling degree days 75 30  
Growing Degree Days 21 (Base 50)    
Moisture  
Dew Point 32 °F    
Average Humidity 27    
Maximum Humidity 44    
Minimum Humidity 10    
Precipitation  
Precipitation 0.00 in 0.03 in 0.27 in (2014)
Month to date precipitation T 0.60  
Year to date precipitation 2.85 5.93  
Sea Level Pressure  
Sea Level Pressure 29.84 in    
Wind  
Wind Speed 7 mph (SW)    
Max Wind Speed 15 mph    
Max Gust Speed 17 mph    
Visibility 10 miles    
Events      
T = Trace of Precipitation, MM = Missing Value Source: NWS Daily Summary

Daily Weather History Graph

Daily Weather History Graph

Search for Another Location

Airport:

Trip Planner

Search our weather history database for the weather conditions in past years. The results will help you decide how hot, cold, wet, or windy it might be!

Date:

Astronomy

Jun. 16, 2013 Rise Set
Actual Time 6:00 AM MDT 9:17 PM MDT
Civil Twilight 5:25 AM MDT 9:52 PM MDT
Nautical Twilight 4:40 AM MDT 10:37 PM MDT
Astronomical Twilight 3:45 AM MDT 11:32 PM MDT
Moon 1:49 PM MDT (6/16) 1:15 AM MDT (6/16)
Length of Visible Light 16h 27m
Length of Day
15h 17m
Waxing Crescent, 50% of the Moon is Illuminated
Jun 16
Waxing Crescent
Jun 23
Full
Jun 29
Last Quarter
Jul 8
New
Jul 15
First Quarter

Hourly Weather History & Observations

Time (MDT) Temp. Dew Point Humidity Pressure Visibility Wind Dir Wind Speed Gust Speed Precip Events Conditions
12:53 AM 60.1 °F 30.9 °F 33% 29.84 in 10.0 mi SSW 8.1 mph - N/A   Clear
1:53 AM 57.0 °F 30.9 °F 37% 29.84 in 10.0 mi SSW 9.2 mph - N/A   Clear
2:53 AM 60.1 °F 26.1 °F 27% 29.83 in 10.0 mi SSW 9.2 mph - N/A   Clear
4:53 AM 55.9 °F 28.0 °F 34% 29.85 in 10.0 mi South 8.1 mph - N/A   Clear
5:53 AM 53.1 °F 28.0 °F 38% 29.86 in 10.0 mi South 9.2 mph - N/A   Clear
6:53 AM 55.9 °F 30.9 °F 39% 29.86 in 10.0 mi SSW 6.9 mph - N/A   Clear
7:53 AM 64.9 °F 30.9 °F 28% 29.86 in 10.0 mi SSW 4.6 mph - N/A   Clear
8:53 AM 69.1 °F 27.0 °F 21% 29.87 in 10.0 mi WSW 3.5 mph - N/A   Clear
9:53 AM 70.0 °F 36.0 °F 29% 29.91 in 10.0 mi NNE 6.9 mph - N/A   Clear
10:53 AM 73.9 °F 37.9 °F 27% 29.90 in 10.0 mi Variable 4.6 mph - N/A   Clear
11:53 AM 77.0 °F 36.0 °F 23% 29.89 in 10.0 mi North 4.6 mph - N/A   Clear
12:53 PM 82.0 °F 36.0 °F 19% 29.86 in 10.0 mi Variable 5.8 mph - N/A   Clear
1:53 PM 84.0 °F 37.0 °F 19% 29.85 in 10.0 mi Variable 4.6 mph - N/A   Clear
2:53 PM 87.1 °F 28.9 °F 12% 29.82 in 10.0 mi WNW 6.9 mph - N/A   Clear
3:53 PM 88.0 °F 30.0 °F 12% 29.81 in 10.0 mi WNW 8.1 mph 16.1 mph N/A   Clear
4:53 PM 89.1 °F 26.1 °F 10% 29.80 in 10.0 mi NW 10.4 mph - N/A   Clear
5:53 PM 86.0 °F 25.0 °F 11% 29.82 in 10.0 mi WNW 9.2 mph - N/A   Clear
6:53 PM 86.0 °F 28.9 °F 13% 29.81 in 10.0 mi West 5.8 mph - N/A   Clear
7:53 PM 86.0 °F 23.0 °F 10% 29.79 in 10.0 mi Calm Calm - N/A   Clear
8:53 PM 71.1 °F 48.0 °F 44% 29.82 in 10.0 mi ESE 4.6 mph - N/A   Clear
9:53 PM 63.0 °F 36.0 °F 37% 29.84 in 10.0 mi South 9.2 mph - N/A   Clear
10:53 PM 61.0 °F 34.0 °F 36% 29.85 in 10.0 mi SSW 6.9 mph - N/A   Clear
11:53 PM 62.1 °F 30.9 °F 31% 29.85 in 10.0 mi South 11.5 mph - N/A   Clear